KB1QVF Weather Reports


time (UTC)temp
C
wind
direction
speed
KPH
gust
KPH
rain 1hr
cm
rain 24hr
cm
rain mn
cm
humidity
%
barometer
mb
20260502213742 8 26 0.0 1.6 0.13 0.20 0.20 93 1012.0
20260502213239 8 22 0.0 0.0 0.13 0.20 0.20 92 1012.4
20260502212738 8 22 0.0 1.6 0.18 0.18 0.18 92 1012.2
20260502212236 8 18 0.0 1.6 0.30 0.18 0.18 92 1012.3
20260502211731 8 16 0.0 3.2 0.30 0.15 0.15 92 1012.2
20260502211229 8 14 0.0 1.6 0.18 0.13 0.13 91 1012.3
20260502210725 8 358 3.2 6.4 0.00 0.10 0.10 91 1012.3
20260502210223 8 4 3.2 3.2 0.13 0.10 0.10 90 1012.3
20260502205720 8 1 4.8 4.8 0.30 0.10 0.10 90 1012.2
20260502205216 8 0 0.0 1.6 0.18 0.08 0.08 88 1012.4
20260502204713 8 323 3.2 6.4 0.13 0.05 0.05 86 1012.2
20260502204211 10 346 3.2 12.9 0.13 0.05 0.05 82 1012.2
20260502203708 10 296 8.0 11.3 0.00 0.03 0.03 78 1012.1
20260502203206 11 129 6.4 9.7 0.00 0.03 0.03 75 1011.7
20260502202700 11 128 8.0 9.7 0.00 0.03 0.03 74 1011.9
20260502202159 11 134 9.7 16.1 0.00 0.03 0.03 74 1012.0
20260502201656 11 139 9.7 12.9 0.00 0.03 0.03 73 1011.8
20260502201152 11 95 9.7 16.1 0.00 0.03 0.03 73 1011.9
20260502200647 11 133 9.7 14.5 0.00 0.03 0.03 73 1012.0
20260502200144 11 110 12.9 14.5 0.00 0.03 0.03 71 1011.9
20260502195643 12 80 4.8 6.4 0.00 0.03 0.03 70 1012.0
20260502195139 12 25 1.6 11.3 0.00 0.03 0.03 70 1011.9
20260502194636 12 128 9.7 16.1 0.00 0.03 0.03 68 1011.9
20260502194133 12 46 4.8 11.3 0.00 0.03 0.03 69 1011.7
20260502193629 11 202 6.4 17.7 0.00 0.03 0.03 70 1011.9
20260502193126 11 104 4.8 11.3 0.00 0.03 0.03 72 1012.2
20260502192621 11 12 4.8 17.7 0.00 0.03 0.03 71 1012.5
20260502192119 11 114 9.7 17.7 0.00 0.03 0.03 69 1012.8
20260502191616 11 125 6.4 16.1 0.00 0.03 0.03 70 1012.6
20260502191113 11 197 17.7 22.5 0.00 0.03 0.03 67 1012.8
20260502190611 12 138 16.1 22.5 0.00 0.03 0.03 65 1012.5
20260502190108 11 137 16.1 20.9 0.00 0.03 0.03 68 1012.6
20260502185602 11 122 12.9 22.5 0.00 0.03 0.03 68 1012.6
20260502185100 11 184 14.5 16.1 0.00 0.03 0.03 68 1013.0
20260502184556 11 101 4.8 11.3 0.00 0.03 0.03 71 1012.6
20260502184051 12 130 8.0 20.9 0.00 0.03 0.03 70 1012.8
20260502183548 11 134 8.0 16.1 0.00 0.03 0.03 72 1012.6
20260502183044 11 134 12.9 17.7 0.00 0.03 0.03 71 1013.1
20260502182539 11 105 8.0 16.1 0.00 0.03 0.03 71 1013.0
20260502182036 11 133 19.3 22.5 0.00 0.03 0.03 70 1012.9
20260502181534 10 146 4.8 22.5 0.00 0.03 0.03 70 1013.0
20260502181032 10 68 9.7 14.5 0.00 0.03 0.03 70 1012.6
20260502180529 10 139 9.7 20.9 0.00 0.03 0.03 68 1013.3
20260502170454 10 38 4.8 11.3 0.00 0.03 0.03 70 1013.2
20260502163937 10 80 4.8 11.3 0.00 0.03 0.03 82 1013.5
20260502163433 10 28 3.2 6.4 0.00 0.03 0.03 83 1013.5
20260502162931 10 37 1.6 4.8 0.00 0.03 0.03 84 1013.4
20260502162428 10 44 1.6 4.8 0.00 0.03 0.03 84 1013.5
20260502161925 10 68 0.0 4.8 0.00 0.03 0.03 84 1013.5
20260502161420 10 53 0.0 4.8 0.18 0.03 0.03 83 1013.6
20260502160919 10 54 1.6 3.2 0.18 0.03 0.03 83 1013.6
20260502160417 10 22 0.0 1.6 0.00 0.00 0.00 81 1013.6
20260502151855 10 128 12.9 14.5 0.00 0.00 0.00 70 1013.7
20260502151351 10 154 8.0 12.9 0.00 0.00 0.00 67 1013.7
20260502150849 10 133 8.0 25.7 0.00 0.00 0.00 64 1013.6
20260502150345 10 341 4.8 6.4 0.00 0.00 0.00 72 1013.6
20260502130733 9 33 1.6 1.6 0.00 0.00 0.00 86 1014.2
20260502130231 8 17 0.0 0.0 0.00 0.00 0.00 87 1014.5
20260502123717 8 17 1.6 4.8 0.00 0.00 0.00 86 1014.5
20260502123214 8 355 4.8 12.9 0.00 0.00 0.00 85 1014.1
20260502122710 8 20 0.0 3.2 0.00 0.00 0.00 85 1014.6
20260502122207 8 250 3.2 6.4 0.00 0.00 0.00 84 1014.7
20260502121705 8 16 0.0 4.8 0.00 0.00 0.00 83 1014.6
20260502121203 8 72 1.6 3.2 0.00 0.00 0.00 83 1014.7
20260502120659 8 262 6.4 6.4 0.00 0.00 0.00 83 1014.7
20260502120155 8 340 3.2 6.4 0.00 0.00 0.00 82 1014.7
20260502115653 8 358 3.2 6.4 0.00 0.00 0.00 82 1014.5
20260502115149 8 199 6.4 9.7 0.00 0.00 0.00 82 1014.5
20260502114646 8 204 4.8 9.7 0.00 0.00 0.00 82 1014.1
20260502114143 8 345 3.2 3.2 0.00 0.00 0.00 82 1014.0
20260502113640 8 93 3.2 4.8 0.00 0.00 0.00 83 1014.1
20260502113138 8 152 4.8 6.4 0.00 0.00 0.00 83 1014.0
20260502112636 8 47 0.0 4.8 0.00 0.00 0.00 83 1014.0
20260502112133 8 356 1.6 4.8 0.00 0.00 0.00 83 1014.0
20260502111631 8 295 4.8 4.8 0.00 0.00 0.00 85 1014.0
20260502111128 7 59 3.2 3.2 0.00 0.00 0.00 85 1013.4
20260502110626 7 25 0.0 0.0 0.00 0.00 0.00 84 1013.6
20260502110123 7 28 0.0 1.6 0.00 0.00 0.00 85 1013.6
20260502105620 7 21 0.0 0.0 0.00 0.00 0.00 85 1013.8
20260502105117 7 23 0.0 0.0 0.00 0.00 0.00 85 1013.9
20260502104614 7 17 0.0 0.0 0.00 0.00 0.00 85 1013.7
20260502104112 7 22 0.0 1.6 0.00 0.00 0.00 85 1013.7
20260502103609 7 19 0.0 0.0 0.00 0.00 0.00 85 1013.7
20260502103108 7 45 0.0 3.2 0.00 0.00 0.00 84 1013.7
20260502102603 7 31 0.0 3.2 0.00 0.00 0.00 84 1013.6
20260502102100 7 17 0.0 0.0 0.00 0.00 0.00 84 1013.7
20260502101558 7 221 3.2 4.8 0.00 0.00 0.00 84 1013.9
20260502101057 7 38 1.6 1.6 0.00 0.00 0.00 84 1013.3
20260502100555 7 46 1.6 3.2 0.00 0.00 0.00 84 1013.6
20260502091529 7 26 0.0 3.2 0.00 0.00 0.00 83 1013.3
20260502091027 7 45 3.2 4.8 0.00 0.00 0.00 84 1013.3
20260502090523 7 356 1.6 4.8 0.00 0.00 0.00 83 1013.5
20260502071418 7 42 1.6 3.2 0.00 0.00 0.00 76 1013.5
20260502070916 7 61 1.6 3.2 0.00 0.00 0.00 76 1013.3
20260502070414 7 332 1.6 4.8 0.00 0.00 0.00 76 1013.6
20260502065912 7 7 3.2 3.2 0.00 0.00 0.00 76 1013.2
20260502065410 8 140 3.2 4.8 0.00 0.00 0.00 75 1013.4
20260502064908 8 299 3.2 3.2 0.00 0.00 0.00 75 1013.2
20260502064406 8 27 1.6 4.8 0.00 0.00 0.00 75 1013.6
20260502063903 8 144 3.2 3.2 0.00 0.00 0.00 74 1013.5
20260502063400 8 26 0.0 3.2 0.00 0.00 0.00 74 1013.4
20260502062858 8 356 3.2 6.4 0.00 0.00 0.00 74 1013.6
20260502062355 8 64 4.8 4.8 0.00 0.00 0.00 73 1013.8
20260502061854 8 73 3.2 4.8 0.00 0.00 0.00 73 1013.8
20260502061351 8 3 1.6 3.2 0.00 0.00 0.00 73 1013.9
20260502060846 8 233 6.4 6.4 0.00 0.00 0.00 73 1013.7
20260502060342 8 137 0.0 3.2 0.00 0.00 0.00 73 1013.8
20260502055839 8 14 1.6 9.7 0.00 0.00 0.00 73 1013.9
20260502055338 8 42 3.2 3.2 0.00 0.00 0.00 73 1014.0
20260502054837 8 50 3.2 4.8 0.00 0.00 0.00 72 1013.8
20260502054334 8 98 1.6 3.2 0.00 0.00 0.00 72 1013.9
20260502053831 8 110 1.6 9.7 0.00 0.00 0.00 72 1013.8
20260502053328 8 41 1.6 4.8 0.00 0.00 0.00 72 1013.9
20260502052826 8 167 4.8 4.8 0.00 0.00 0.00 72 1013.9
20260502052324 8 116 3.2 9.7 0.00 0.00 0.00 72 1013.8
20260502051821 8 21 0.0 3.2 0.00 0.00 0.00 71 1013.8
20260502051320 8 28 3.2 3.2 0.00 0.00 0.00 71 1013.9
20260502050816 8 21 1.6 3.2 0.00 0.00 0.00 71 1014.0
20260502050312 8 347 3.2 3.2 0.00 0.00 0.00 71 1014.1
20260502045810 8 327 3.2 3.2 0.00 0.00 0.00 71 1013.9
20260502045306 8 332 1.6 4.8 0.00 0.00 0.00 70 1014.0
20260502044803 8 40 3.2 4.8 0.00 0.00 0.00 70 1013.8
20260502044259 8 40 1.6 3.2 0.00 0.00 0.00 69 1013.8
20260502043757 8 26 0.0 3.2 0.00 0.00 0.00 69 1013.9
20260502043254 8 359 1.6 3.2 0.00 0.00 0.00 69 1014.0
20260502042753 8 19 1.6 6.4 0.00 0.00 0.00 69 1014.2
20260502042251 8 152 6.4 9.7 0.00 0.00 0.00 70 1014.1
20260502041748 8 354 1.6 6.4 0.00 0.00 0.00 70 1013.8
20260502041246 8 46 1.6 3.2 0.00 0.00 0.00 71 1013.9
20260502040742 8 163 4.8 4.8 0.00 0.00 0.00 69 1014.2
20260502040239 8 48 1.6 6.4 0.00 0.00 0.00 69 1014.0
20260502035735 8 37 1.6 3.2 0.00 0.00 0.00 68 1014.0
20260502035232 8 45 1.6 3.2 0.00 0.00 0.00 68 1014.2
20260502034730 8 236 3.2 6.4 0.00 0.00 0.00 68 1014.0
20260502034228 9 129 6.4 6.4 0.00 0.00 0.00 67 1014.0
20260502033725 9 22 3.2 6.4 0.00 0.00 0.00 66 1014.2
20260502033223 9 60 3.2 4.8 0.00 0.00 0.00 65 1014.3
20260502032720 9 44 1.6 3.2 0.00 0.00 0.00 65 1014.0
20260502032215 9 14 0.0 3.2 0.00 0.00 0.00 64 1014.0
20260502031714 9 242 6.4 9.7 0.00 0.00 0.00 64 1014.1
20260502031211 9 56 3.2 4.8 0.00 0.00 0.00 63 1014.0
20260502030710 9 184 6.4 6.4 0.00 0.00 0.00 62 1014.1
20260502030208 9 20 0.0 1.6 0.00 0.00 0.00 62 1014.3
20260502025704 9 88 3.2 3.2 0.00 0.00 0.00 62 1014.1
20260502025202 10 26 1.6 3.2 0.00 0.00 0.00 60 1014.0
20260502024700 10 39 3.2 4.8 0.00 0.00 0.00 59 1013.9
20260502024158 10 345 3.2 4.8 0.00 0.00 0.00 59 1013.9
20260502023656 10 24 1.6 3.2 0.00 0.00 0.00 58 1013.9
20260502023153 10 74 3.2 4.8 0.00 0.00 0.00 57 1014.2
20260502022649 10 112 0.0 4.8 0.00 0.00 0.00 57 1013.9
20260502022146 10 92 1.6 3.2 0.00 0.00 0.00 56 1014.0
20260502021644 10 245 3.2 4.8 0.00 0.00 0.00 57 1014.0
20260502021141 10 186 6.4 6.4 0.00 0.00 0.00 55 1014.3
20260502020638 10 22 0.0 4.8 0.00 0.00 0.00 55 1014.1
20260502020135 9 5 1.6 4.8 0.00 0.00 0.00 54 1014.0
20260502015633 10 21 1.6 3.2 0.00 0.00 0.00 53 1014.0
20260502015129 10 175 4.8 9.7 0.00 0.00 0.00 52 1014.0
20260502014627 10 30 1.6 1.6 0.00 0.00 0.00 52 1013.7
20260502014123 10 24 0.0 3.2 0.00 0.00 0.00 52 1013.8
20260502013620 9 41 3.2 3.2 0.00 0.00 0.00 53 1013.7
20260502013115 9 19 0.0 3.2 0.00 0.00 0.00 53 1013.6
20260502012613 8 357 1.6 1.6 0.00 0.00 0.00 54 1013.8
20260502012111 9 19 0.0 0.0 0.00 0.00 0.00 53 1013.7
20260502011607 8 26 1.6 3.2 0.00 0.00 0.00 54 1013.7
20260502011103 8 10 0.0 0.0 0.00 0.00 0.00 58 1013.6
20260502010600 8 13 0.0 0.0 0.00 0.00 0.00 54 1013.5
20260502010056 8 24 0.0 4.8 0.00 0.00 0.00 56 1013.6
20260502005555 8 3 0.0 0.0 0.00 0.00 0.00 57 1013.4
20260502005052 9 3 0.0 0.0 0.00 0.00 0.00 56 1013.3
20260502004547 9 3 0.0 0.0 0.00 0.00 0.00 53 1013.2
20260502004044 9 3 0.0 0.0 0.00 0.00 0.00 53 1013.0
20260502003543 9 3 0.0 0.0 0.00 0.00 0.00 52 1013.2
20260502003039 10 3 0.0 0.0 0.00 0.00 0.00 51 1012.9
20260502002536 10 3 0.0 0.0 0.00 0.00 0.00 49 1012.8
20260502002033 10 3 0.0 0.0 0.00 0.00 0.00 50 1012.8
20260502001531 10 2 0.0 1.6 0.00 0.00 0.00 49 1012.8
20260502001028 10 4 1.6 1.6 0.00 0.00 0.00 48 1012.8
20260502000526 10 11 0.0 1.6 0.00 0.00 0.00 47 1012.5
20260502000023 11 14 0.0 1.6 0.00 0.00 0.00 49 1012.5
20260501235518 11 15 0.0 1.6 0.00 0.00 0.00 45 1012.4
20260501235014 11 15 0.0 0.0 0.00 0.00 0.00 44 1012.3
20260501234510 12 15 0.0 0.0 0.00 0.00 0.00 43 1012.3
20260501234009 12 15 0.0 1.6 0.00 0.00 0.00 42 1012.4
20260501233506 13 17 0.0 1.6 0.00 0.00 0.00 39 1012.3
20260501233002 13 6 3.2 4.8 0.00 0.00 0.00 38 1012.1
20260501232459 13 20 0.0 0.0 0.00 0.00 0.00 39 1012.0
20260501231956 13 16 0.0 0.0 0.00 0.00 0.00 37 1012.0
20260501231455 14 16 0.0 1.6 0.00 0.00 0.00 35 1012.0
20260501230952 14 18 1.6 3.2 0.00 0.00 0.00 34 1011.9
20260501230451 15 356 1.6 3.2 0.00 0.00 0.00 34 1011.6
20260501225948 15 357 1.6 6.4 0.00 0.00 0.00 31 1011.7
20260501225446 16 37 3.2 4.8 0.00 0.00 0.00 31 1011.6
20260501224941 16 22 1.6 4.8 0.00 0.00 0.00 31 1011.7
20260501224439 15 19 0.0 4.8 0.00 0.00 0.00 34 1011.6
20260501223936 15 14 3.2 9.7 0.00 0.00 0.00 32 1011.5
20260501223432 15 357 3.2 11.3 0.00 0.00 0.00 32 1011.6
20260501222927 15 148 6.4 12.9 0.00 0.00 0.00 31 1011.6
20260501222425 16 342 3.2 14.5 0.00 0.00 0.00 31 1011.6
20260501221921 16 301 6.4 9.7 0.00 0.00 0.00 30 1011.4
20260501221419 16 273 6.4 11.3 0.00 0.00 0.00 30 1011.5
20260501220916 16 342 4.8 6.4 0.00 0.00 0.00 32 1011.4
20260501220414 16 2 3.2 4.8 0.00 0.00 0.00 30 1011.5
20260501215909 16 18 0.0 11.3 0.00 0.00 0.00 30 1011.5
20260501215407 16 53 3.2 6.4 0.00 0.00 0.00 28 1011.4
20260501214903 16 261 1.6 4.8 0.00 0.00 0.00 30 1011.3
20260501214403 16 281 6.4 11.3 0.00 0.00 0.00 29 1011.4
20260501213858 16 301 11.3 20.9 0.00 0.00 0.00 29 1011.3